contact:dominique.lefevre@mio.osupytheas.fr, maurice.libes@osupytheas.fr, didier.mallarino@osupytheas.fr
Project:EMSO http://www.emso-fr.org/EMSO-France
Depth: 2436.0 m
Title:EMSO Ligure Ouest : Data MII capteur CSTAR
DateTime,Latitude,Longitude,Instrument_Serial,Reference_Counts,Signal_Counts,Corrected_Signal_raw_counts,Calculated_Beam_c_inverse_meters,Internal_thermistor_counts
DateTime,Latitude,Longitude,Instrument_Serial,Reference_Counts,Signal_Counts,Corrected_Signal_raw_counts,Calculated_Beam_c_inverse_meters,Internal_thermistor_counts
2022-08-05T00:01:11,42.805,6.029,CST-1368DR,4629,5073,11672,01.164,551
2022-08-05T00:04:13,42.805,6.029,CST-1368DR,4629,5078,11682,01.161,551
2022-08-05T00:07:14,42.805,6.029,CST-1368DR,4629,5076,11678,01.162,551
2022-08-05T00:10:16,42.805,6.029,CST-1368DR,4629,5081,11690,01.158,551
2022-08-05T00:13:18,42.805,6.029,CST-1368DR,4629,5076,11679,01.162,551
2022-08-05T00:16:19,42.805,6.029,CST-1368DR,4629,5074,11673,01.164,551
2022-08-05T00:19:21,42.805,6.029,CST-1368DR,4629,5074,11675,01.163,551
2022-08-05T00:22:22,42.805,6.029,CST-1368DR,4629,5071,11667,01.166,551
2022-08-05T00:25:24,42.805,6.029,CST-1368DR,4629,5085,11698,01.156,551
2022-08-05T00:28:26,42.805,6.029,CST-1368DR,4629,5076,11677,01.163,551
2022-08-05T00:31:27,42.805,6.029,CST-1368DR,4629,5081,11690,01.158,551
2022-08-05T00:34:29,42.805,6.029,CST-1368DR,4629,5074,11674,01.164,551
2022-08-05T00:37:30,42.805,6.029,CST-1368DR,4628,5071,11670,01.165,551
2022-08-05T00:40:32,42.805,6.029,CST-1368DR,4628,5070,11668,01.166,551
2022-08-05T00:43:33,42.805,6.029,CST-1368DR,4628,5062,11649,01.172,551
2022-08-05T00:46:35,42.805,6.029,CST-1368DR,4628,5063,11651,01.172,551
2022-08-05T00:49:37,42.805,6.029,CST-1368DR,4628,5071,11670,01.165,551
2022-08-05T00:52:38,42.805,6.029,CST-1368DR,4628,5068,11663,01.167,551
2022-08-05T00:55:40,42.805,6.029,CST-1368DR,4629,5064,11652,01.171,551
2022-08-05T00:58:41,42.805,6.029,CST-1368DR,4628,5067,11659,01.169,551
2022-08-05T01:01:43,42.805,6.029,CST-1368DR,4628,5066,11657,01.170,551
2022-08-05T01:04:45,42.805,6.029,CST-1368DR,4628,5065,11655,01.170,551
2022-08-05T01:07:46,42.805,6.029,CST-1368DR,4628,5068,11661,01.168,551
2022-08-05T01:10:48,42.805,6.029,CST-1368DR,4628,5072,11672,01.164,551
2022-08-05T01:13:49,42.805,6.029,CST-1368DR,4628,5076,11680,01.162,551
2022-08-05T01:16:51,42.805,6.029,CST-1368DR,4628,5072,11671,01.165,551
2022-08-05T01:19:52,42.805,6.029,CST-1368DR,4628,5063,11650,01.172,551
2022-08-05T01:22:54,42.805,6.029,CST-1368DR,4628,5068,11663,01.167,551
2022-08-05T01:25:56,42.805,6.029,CST-1368DR,4628,5077,11684,01.160,551
2022-08-05T01:28:57,42.805,6.029,CST-1368DR,4628,5064,11652,01.171,551
2022-08-05T01:31:59,42.805,6.029,CST-1368DR,4628,5068,11663,01.167,551
2022-08-05T01:35:00,42.805,6.029,CST-1368DR,4628,5062,11649,01.172,551
2022-08-05T01:38:02,42.805,6.029,CST-1368DR,4628,5061,11646,01.173,551
2022-08-05T01:41:03,42.805,6.029,CST-1368DR,4628,5063,11651,01.172,551
2022-08-05T01:44:05,42.805,6.029,CST-1368DR,4628,5068,11661,01.168,551
2022-08-05T01:47:07,42.805,6.029,CST-1368DR,4628,5066,11659,01.169,551
2022-08-05T01:50:08,42.805,6.029,CST-1368DR,4628,5067,11660,01.169,551
2022-08-05T01:53:10,42.805,6.029,CST-1368DR,4628,5070,11668,01.166,551
2022-08-05T01:56:11,42.805,6.029,CST-1368DR,4628,5058,11640,01.175,551
2022-08-05T01:59:13,42.805,6.029,CST-1368DR,4629,5074,11673,01.164,551
2022-08-05T02:02:15,42.805,6.029,CST-1368DR,4628,5060,11645,01.174,551
2022-08-05T02:05:16,42.805,6.029,CST-1368DR,4628,5057,11638,01.176,551
2022-08-05T02:08:18,42.805,6.029,CST-1368DR,4628,5052,11625,01.181,551
2022-08-05T02:11:19,42.805,6.029,CST-1368DR,4628,5062,11648,01.173,551
2022-08-05T02:14:21,42.805,6.029,CST-1368DR,4628,5054,11630,01.179,551
2022-08-05T02:17:22,42.805,6.029,CST-1368DR,4628,5057,11638,01.176,551
2022-08-05T02:20:24,42.805,6.029,CST-1368DR,4628,5060,11644,01.174,551
2022-08-05T02:23:26,42.805,6.029,CST-1368DR,4628,5058,11639,01.176,551
2022-08-05T02:26:27,42.805,6.029,CST-1368DR,4628,5052,11626,01.180,551
2022-08-05T02:29:29,42.805,6.029,CST-1368DR,4628,5049,11618,01.183,551
2022-08-05T02:32:30,42.805,6.029,CST-1368DR,4628,5056,11635,01.177,551
2022-08-05T02:35:32,42.805,6.029,CST-1368DR,4628,5054,11629,01.179,551
2022-08-05T02:38:33,42.805,6.029,CST-1368DR,4628,5057,11638,01.176,551
2022-08-05T02:41:35,42.805,6.029,CST-1368DR,4628,5060,11643,01.174,551
2022-08-05T02:44:37,42.805,6.029,CST-1368DR,4628,5060,11645,01.174,551
2022-08-05T02:47:38,42.805,6.029,CST-1368DR,4628,5059,11642,01.175,551
2022-08-05T02:50:40,42.805,6.029,CST-1368DR,4628,5057,11638,01.176,551
2022-08-05T02:53:41,42.805,6.029,CST-1368DR,4628,5060,11644,01.174,551
2022-08-05T02:56:43,42.805,6.029,CST-1368DR,4628,5062,11649,01.172,551
2022-08-05T02:59:44,42.805,6.029,CST-1368DR,4628,5053,11629,01.179,551
2022-08-05T03:02:46,42.805,6.029,CST-1368DR,4628,5057,11637,01.176,551
2022-08-05T03:05:48,42.805,6.029,CST-1368DR,4628,5064,11654,01.171,551
2022-08-05T03:08:49,42.805,6.029,CST-1368DR,4628,5058,11639,01.176,551
2022-08-05T03:11:51,42.805,6.029,CST-1368DR,4628,5060,11644,01.174,551
2022-08-05T03:14:52,42.805,6.029,CST-1368DR,4628,5058,11638,01.176,551
2022-08-05T03:17:54,42.805,6.029,CST-1368DR,4628,5059,11641,01.175,551
2022-08-05T03:20:56,42.805,6.029,CST-1368DR,4628,5057,11636,01.177,551
2022-08-05T03:23:57,42.805,6.029,CST-1368DR,4628,5057,11637,01.176,551
2022-08-05T03:26:59,42.805,6.029,CST-1368DR,4628,5054,11631,01.178,551
2022-08-05T03:30:00,42.805,6.029,CST-1368DR,4628,5058,11640,01.175,551
2022-08-05T03:33:02,42.805,6.029,CST-1368DR,4628,5063,11652,01.171,551
2022-08-05T03:36:03,42.805,6.029,CST-1368DR,4628,5053,11629,01.179,551
2022-08-05T03:39:05,42.805,6.029,CST-1368DR,4628,5050,11622,01.182,550
2022-08-05T03:42:07,42.805,6.029,CST-1368DR,4628,5060,11644,01.174,551
2022-08-05T03:45:08,42.805,6.029,CST-1368DR,4628,5056,11634,01.177,551
2022-08-05T03:48:10,42.805,6.029,CST-1368DR,4628,5063,11652,01.171,551
2022-08-05T03:51:11,42.805,6.029,CST-1368DR,4628,5060,11644,01.174,551
2022-08-05T03:54:13,42.805,6.029,CST-1368DR,4628,5058,11640,01.175,551
2022-08-05T03:57:14,42.805,6.029,CST-1368DR,4628,5066,11659,01.169,551
2022-08-05T04:00:16,42.805,6.029,CST-1368DR,4628,5056,11634,01.177,551
2022-08-05T04:03:18,42.805,6.029,CST-1368DR,4628,5064,11653,01.171,551
2022-08-05T04:06:19,42.805,6.029,CST-1368DR,4628,5057,11637,01.176,551
2022-08-05T04:09:21,42.805,6.029,CST-1368DR,4628,5049,11619,01.183,551
2022-08-05T04:12:22,42.805,6.029,CST-1368DR,4628,5063,11652,01.171,551
2022-08-05T04:15:24,42.805,6.029,CST-1368DR,4628,5053,11627,01.180,551
2022-08-05T04:18:26,42.805,6.029,CST-1368DR,4628,5060,11644,01.174,551
2022-08-05T04:21:27,42.805,6.029,CST-1368DR,4628,5057,11637,01.176,551
2022-08-05T04:24:29,42.805,6.029,CST-1368DR,4628,5046,11612,01.185,551
2022-08-05T04:27:30,42.805,6.029,CST-1368DR,4628,5051,11622,01.182,551
2022-08-05T04:30:32,42.805,6.029,CST-1368DR,4628,5051,11623,01.181,551
2022-08-05T04:33:33,42.805,6.029,CST-1368DR,4628,5052,11626,01.180,551
2022-08-05T04:36:35,42.805,6.029,CST-1368DR,4628,5058,11639,01.176,551
2022-08-05T04:39:37,42.805,6.029,CST-1368DR,4628,5060,11644,01.174,551
2022-08-05T04:42:38,42.805,6.029,CST-1368DR,4628,5060,11645,01.174,551
2022-08-05T04:45:40,42.805,6.029,CST-1368DR,4628,5057,11636,01.177,551
2022-08-05T04:48:41,42.805,6.029,CST-1368DR,4628,5062,11648,01.173,551
2022-08-05T04:51:43,42.805,6.029,CST-1368DR,4628,5057,11636,01.177,551
2022-08-05T04:54:44,42.805,6.029,CST-1368DR,4628,5057,11637,01.176,551
2022-08-05T04:57:46,42.805,6.029,CST-1368DR,4628,5056,11634,01.177,551
2022-08-05T05:00:48,42.805,6.029,CST-1368DR,4628,5063,11651,01.172,551
2022-08-05T05:03:49,42.805,6.029,CST-1368DR,4628,5051,11622,01.182,551
2022-08-05T05:06:51,42.805,6.029,CST-1368DR,4628,5063,11651,01.172,551
2022-08-05T05:09:52,42.805,6.029,CST-1368DR,4628,5056,11634,01.177,551
2022-08-05T05:12:54,42.805,6.029,CST-1368DR,4628,5061,11646,01.173,551
2022-08-05T05:15:56,42.805,6.029,CST-1368DR,4628,5058,11639,01.176,551
2022-08-05T05:18:57,42.805,6.029,CST-1368DR,4628,5055,11632,01.178,551
2022-08-05T05:21:59,42.805,6.029,CST-1368DR,4628,5057,11637,01.176,551
2022-08-05T05:25:00,42.805,6.029,CST-1368DR,4628,5063,11652,01.171,551
2022-08-05T05:28:02,42.805,6.029,CST-1368DR,4628,5054,11629,01.179,551
2022-08-05T05:31:03,42.805,6.029,CST-1368DR,4628,5056,11634,01.177,551
2022-08-05T05:34:05,42.805,6.029,CST-1368DR,4628,5065,11655,01.170,551
2022-08-05T05:37:07,42.805,6.029,CST-1368DR,4628,5057,11636,01.177,551
2022-08-05T05:40:08,42.805,6.029,CST-1368DR,4628,5064,11652,01.171,551
2022-08-05T05:43:10,42.805,6.029,CST-1368DR,4628,5058,11638,01.176,551
2022-08-05T05:46:11,42.805,6.029,CST-1368DR,4628,5060,11643,01.174,551
2022-08-05T05:49:13,42.805,6.029,CST-1368DR,4628,5059,11642,01.175,551
2022-08-05T05:52:14,42.805,6.029,CST-1368DR,4628,5059,11641,01.175,551
2022-08-05T05:55:16,42.805,6.029,CST-1368DR,4628,5051,11624,01.181,551
2022-08-05T05:58:18,42.805,6.029,CST-1368DR,4628,5053,11629,01.179,551
2022-08-05T06:01:19,42.805,6.029,CST-1368DR,4628,5051,11624,01.181,551
2022-08-05T06:04:21,42.805,6.029,CST-1368DR,4628,5051,11623,01.181,551
2022-08-05T06:07:22,42.805,6.029,CST-1368DR,4628,5057,11638,01.176,551
2022-08-05T06:10:24,42.805,6.029,CST-1368DR,4628,5051,11623,01.181,551
2022-08-05T06:13:26,42.805,6.029,CST-1368DR,4628,5055,11633,01.178,551
2022-08-05T06:16:27,42.805,6.029,CST-1368DR,4628,5060,11645,01.174,551
2022-08-05T06:19:29,42.805,6.029,CST-1368DR,4628,5057,11637,01.176,551
2022-08-05T06:22:30,42.805,6.029,CST-1368DR,4628,5057,11638,01.176,551
2022-08-05T06:25:32,42.805,6.029,CST-1368DR,4628,5052,11626,01.180,551
2022-08-05T06:28:33,42.805,6.029,CST-1368DR,4628,5055,11633,01.178,551
2022-08-05T06:31:35,42.805,6.029,CST-1368DR,4628,5055,11632,01.178,551
2022-08-05T06:34:37,42.805,6.029,CST-1368DR,4628,5048,11617,01.183,551
2022-08-05T06:37:38,42.805,6.029,CST-1368DR,4628,5059,11641,01.175,551
2022-08-05T06:40:40,42.805,6.029,CST-1368DR,4628,5062,11649,01.172,551
2022-08-05T06:43:41,42.805,6.029,CST-1368DR,4629,5144,11834,01.109,551
2022-08-05T06:46:43,42.805,6.029,CST-1368DR,4629,5145,11837,01.108,551
2022-08-05T06:49:45,42.805,6.029,CST-1368DR,4629,5146,11839,01.108,551
2022-08-05T06:52:46,42.805,6.029,CST-1368DR,4629,5148,11844,01.106,551
2022-08-05T06:55:48,42.805,6.029,CST-1368DR,4629,5148,11844,01.106,551
2022-08-05T06:58:49,42.805,6.029,CST-1368DR,4629,5143,11833,01.110,551
2022-08-05T07:01:51,42.805,6.029,CST-1368DR,4629,5146,11840,01.107,551
2022-08-05T07:04:52,42.805,6.029,CST-1368DR,4629,5145,11836,01.109,551
2022-08-05T07:07:54,42.805,6.029,CST-1368DR,4629,5144,11834,01.109,551
2022-08-05T07:10:56,42.805,6.029,CST-1368DR,4629,5143,11832,01.110,551
2022-08-05T07:13:57,42.805,6.029,CST-1368DR,4629,5144,11836,01.109,551
2022-08-05T07:16:59,42.805,6.029,CST-1368DR,4629,5147,11841,01.107,551
2022-08-05T07:20:00,42.805,6.029,CST-1368DR,4629,5145,11837,01.108,551
2022-08-05T07:23:02,42.805,6.029,CST-1368DR,4629,5144,11836,01.109,551
2022-08-05T07:26:03,42.805,6.029,CST-1368DR,4629,5142,11831,01.110,551
2022-08-05T07:29:05,42.805,6.029,CST-1368DR,4629,5145,11837,01.108,551
2022-08-05T07:32:07,42.805,6.029,CST-1368DR,4629,5142,11830,01.111,551
2022-08-05T07:35:08,42.805,6.029,CST-1368DR,4629,5144,11835,01.109,551
2022-08-05T07:38:10,42.805,6.029,CST-1368DR,4629,5144,11834,01.109,551
2022-08-05T07:41:11,42.805,6.029,CST-1368DR,4629,5143,11833,01.110,551
2022-08-05T07:44:13,42.805,6.029,CST-1368DR,4629,5145,11836,01.109,551
2022-08-05T07:47:15,42.805,6.029,CST-1368DR,4629,5145,11836,01.109,551
2022-08-05T07:50:16,42.805,6.029,CST-1368DR,4629,5144,11836,01.109,551
2022-08-05T07:53:18,42.805,6.029,CST-1368DR,4629,5149,11846,01.105,551
2022-08-05T07:56:19,42.805,6.029,CST-1368DR,4629,5149,11847,01.105,551
2022-08-05T07:59:21,42.805,6.029,CST-1368DR,4629,5145,11836,01.109,551
2022-08-05T08:02:22,42.805,6.029,CST-1368DR,4629,5145,11838,01.108,551
2022-08-05T08:05:24,42.805,6.029,CST-1368DR,4629,5147,11841,01.107,551
2022-08-05T08:08:26,42.805,6.029,CST-1368DR,4629,5148,11844,01.106,551
2022-08-05T08:11:27,42.805,6.029,CST-1368DR,4629,5141,11828,01.111,551
2022-08-05T08:14:29,42.805,6.029,CST-1368DR,4629,5148,11845,01.106,551
2022-08-05T08:17:30,42.805,6.029,CST-1368DR,4629,5142,11831,01.110,551
2022-08-05T08:20:32,42.805,6.029,CST-1368DR,4629,5150,11848,01.105,551
2022-08-05T08:23:33,42.805,6.029,CST-1368DR,4629,5143,11832,01.110,551
2022-08-05T08:26:35,42.805,6.029,CST-1368DR,4629,5143,11833,01.110,551
2022-08-05T08:29:37,42.805,6.029,CST-1368DR,4629,5142,11831,01.110,551
2022-08-05T08:32:38,42.805,6.029,CST-1368DR,4629,5142,11831,01.110,551
2022-08-05T08:35:40,42.805,6.029,CST-1368DR,4629,5147,11842,01.107,551
2022-08-05T08:38:41,42.805,6.029,CST-1368DR,4629,5148,11844,01.106,551
2022-08-05T08:41:43,42.805,6.029,CST-1368DR,4629,5144,11836,01.109,551
2022-08-05T08:44:45,42.805,6.029,CST-1368DR,4629,5145,11837,01.108,551
2022-08-05T08:47:46,42.805,6.029,CST-1368DR,4629,5149,11845,01.106,551
2022-08-05T08:50:48,42.805,6.029,CST-1368DR,4629,5151,11852,01.103,551
2022-08-05T08:53:49,42.805,6.029,CST-1368DR,4629,5152,11852,01.103,551
2022-08-05T08:56:51,42.805,6.029,CST-1368DR,4629,5144,11835,01.109,551
2022-08-05T08:59:52,42.805,6.029,CST-1368DR,4629,5139,11823,01.113,551
2022-08-05T09:02:54,42.805,6.029,CST-1368DR,4629,5147,11841,01.107,551
2022-08-05T09:05:56,42.805,6.029,CST-1368DR,4629,5138,11821,01.114,551
2022-08-05T09:08:57,42.805,6.029,CST-1368DR,4629,5142,11829,01.111,551
2022-08-05T09:11:59,42.805,6.029,CST-1368DR,4629,5144,11834,01.109,551
2022-08-05T09:15:00,42.805,6.029,CST-1368DR,4628,5141,11829,01.111,551
2022-08-05T09:18:02,42.805,6.029,CST-1368DR,4629,5145,11837,01.108,551
2022-08-05T09:21:03,42.805,6.029,CST-1368DR,4628,5137,11822,01.113,551
2022-08-05T09:24:05,42.805,6.029,CST-1368DR,4629,5145,11837,01.108,551
2022-08-05T09:27:07,42.805,6.029,CST-1368DR,4629,5149,11846,01.105,551
2022-08-05T09:30:08,42.805,6.029,CST-1368DR,4629,5142,11830,01.111,551
2022-08-05T09:33:10,42.805,6.029,CST-1368DR,4629,5141,11829,01.111,551
2022-08-05T09:36:11,42.805,6.029,CST-1368DR,4628,5142,11833,01.110,551
2022-08-05T09:39:13,42.805,6.029,CST-1368DR,4628,5138,11823,01.113,551
2022-08-05T09:42:15,42.805,6.029,CST-1368DR,4629,5143,11832,01.110,551
2022-08-05T09:45:16,42.805,6.029,CST-1368DR,4629,5145,11836,01.109,551
2022-08-05T09:48:18,42.805,6.029,CST-1368DR,4629,5144,11836,01.109,551
2022-08-05T09:51:19,42.805,6.029,CST-1368DR,4629,5141,11828,01.111,551
2022-08-05T09:54:21,42.805,6.029,CST-1368DR,4629,5136,11815,01.116,551
2022-08-05T09:57:22,42.805,6.029,CST-1368DR,4628,5137,11820,01.114,551
2022-08-05T10:00:24,42.805,6.029,CST-1368DR,4628,5128,11801,01.120,551
2022-08-05T10:03:26,42.805,6.029,CST-1368DR,4628,5128,11801,01.120,551
2022-08-05T10:06:27,42.805,6.029,CST-1368DR,4628,5122,11786,01.126,551
2022-08-05T10:09:29,42.805,6.029,CST-1368DR,4628,5126,11797,01.122,551
2022-08-05T10:12:30,42.805,6.029,CST-1368DR,4628,5130,11806,01.119,551
2022-08-05T10:15:32,42.805,6.029,CST-1368DR,4628,5128,11801,01.120,551
2022-08-05T10:18:33,42.805,6.029,CST-1368DR,4628,5133,11811,01.117,551
2022-08-05T10:21:35,42.805,6.029,CST-1368DR,4628,5130,11805,01.119,551
2022-08-05T10:24:37,42.805,6.029,CST-1368DR,4628,5115,11770,01.131,551
2022-08-05T10:27:38,42.805,6.029,CST-1368DR,4628,5125,11793,01.123,551
2022-08-05T10:30:40,42.805,6.029,CST-1368DR,4628,5116,11774,01.130,551
2022-08-05T10:33:41,42.805,6.029,CST-1368DR,4628,5117,11775,01.129,551
2022-08-05T10:36:43,42.805,6.029,CST-1368DR,4628,5106,11750,01.138,551
2022-08-05T10:39:45,42.805,6.029,CST-1368DR,4628,5108,11753,01.137,551
2022-08-05T10:42:46,42.805,6.029,CST-1368DR,4628,5112,11764,01.133,551
2022-08-05T10:45:48,42.805,6.029,CST-1368DR,4628,5124,11791,01.124,551
2022-08-05T10:48:49,42.805,6.029,CST-1368DR,4628,5105,11747,01.139,551
2022-08-05T10:51:51,42.805,6.029,CST-1368DR,4628,5125,11794,01.123,551
2022-08-05T10:54:52,42.805,6.029,CST-1368DR,4628,5114,11768,01.132,551
2022-08-05T10:57:54,42.805,6.029,CST-1368DR,4628,5122,11786,01.126,551
2022-08-05T11:00:56,42.805,6.029,CST-1368DR,4628,5116,11773,01.130,551
2022-08-05T11:03:57,42.805,6.029,CST-1368DR,4628,5112,11764,01.133,551
2022-08-05T11:06:59,42.805,6.029,CST-1368DR,4628,5106,11751,01.137,551
2022-08-05T11:10:00,42.805,6.029,CST-1368DR,4628,5097,11729,01.145,551
2022-08-05T11:13:02,42.805,6.029,CST-1368DR,4628,5110,11759,01.135,551
2022-08-05T11:16:03,42.805,6.029,CST-1368DR,4628,5117,11774,01.130,551
2022-08-05T11:19:05,42.805,6.029,CST-1368DR,4628,5112,11763,01.133,551
2022-08-05T11:22:07,42.805,6.029,CST-1368DR,4628,5111,11760,01.134,551
2022-08-05T11:25:08,42.805,6.029,CST-1368DR,4628,5107,11752,01.137,551
2022-08-05T11:28:10,42.805,6.029,CST-1368DR,4628,5107,11752,01.137,551
2022-08-05T11:31:11,42.805,6.029,CST-1368DR,4628,5104,11744,01.140,551
2022-08-05T11:34:13,42.805,6.029,CST-1368DR,4628,5095,11724,01.147,551
2022-08-05T11:37:15,42.805,6.029,CST-1368DR,4628,5111,11761,01.134,550
2022-08-05T11:40:16,42.805,6.029,CST-1368DR,4628,5105,11747,01.139,551
2022-08-05T11:43:18,42.805,6.029,CST-1368DR,4628,5108,11755,01.136,551
2022-08-05T11:46:19,42.805,6.029,CST-1368DR,4628,5112,11764,01.133,551
2022-08-05T11:49:21,42.805,6.029,CST-1368DR,4628,5108,11753,01.137,551
2022-08-05T11:52:22,42.805,6.029,CST-1368DR,4628,5112,11763,01.133,551
2022-08-05T11:55:24,42.805,6.029,CST-1368DR,4628,5110,11758,01.135,551
2022-08-05T11:58:26,42.805,6.029,CST-1368DR,4628,5096,11727,01.146,551
2022-08-05T12:01:27,42.805,6.029,CST-1368DR,4628,5114,11768,01.132,551
2022-08-05T12:04:29,42.805,6.029,CST-1368DR,4628,5107,11752,01.137,551
2022-08-05T12:07:30,42.805,6.029,CST-1368DR,4628,5119,11779,01.128,551
2022-08-05T12:10:32,42.805,6.029,CST-1368DR,4628,5118,11776,01.129,551
2022-08-05T12:13:33,42.805,6.029,CST-1368DR,4628,5103,11743,01.140,551
2022-08-05T12:16:35,42.805,6.029,CST-1368DR,4628,5114,11769,01.131,551
2022-08-05T12:19:37,42.805,6.029,CST-1368DR,4628,5106,11751,01.137,551
2022-08-05T12:22:38,42.805,6.029,CST-1368DR,4628,5114,11768,01.132,551
2022-08-05T12:25:40,42.805,6.029,CST-1368DR,4628,5116,11773,01.130,551
2022-08-05T12:28:41,42.805,6.029,CST-1368DR,4628,5084,11700,01.155,551
2022-08-05T12:31:43,42.805,6.029,CST-1368DR,4628,5093,11720,01.148,551
2022-08-05T12:34:45,42.805,6.029,CST-1368DR,4628,5098,11732,01.144,551
2022-08-05T12:37:46,42.805,6.029,CST-1368DR,4628,5116,11773,01.130,551
2022-08-05T12:40:48,42.805,6.029,CST-1368DR,4628,5108,11755,01.136,551
2022-08-05T12:43:49,42.805,6.029,CST-1368DR,4628,5109,11756,01.136,550
2022-08-05T12:46:51,42.805,6.029,CST-1368DR,4628,5111,11762,01.134,551
2022-08-05T12:49:52,42.805,6.029,CST-1368DR,4628,5093,11721,01.148,551
2022-08-05T12:52:54,42.805,6.029,CST-1368DR,4628,5089,11710,01.151,551
2022-08-05T12:55:56,42.805,6.029,CST-1368DR,4628,5117,11774,01.130,551
2022-08-05T12:58:57,42.805,6.029,CST-1368DR,4628,5110,11759,01.135,551
2022-08-05T13:01:59,42.805,6.029,CST-1368DR,4628,5111,11761,01.134,551
2022-08-05T13:05:00,42.805,6.029,CST-1368DR,4628,5089,11710,01.151,551
2022-08-05T13:08:02,42.805,6.029,CST-1368DR,4628,5110,11759,01.135,551
2022-08-05T13:11:03,42.805,6.029,CST-1368DR,4628,5118,11776,01.129,551
2022-08-05T13:14:05,42.805,6.029,CST-1368DR,4628,5109,11756,01.136,551
2022-08-05T13:17:07,42.805,6.029,CST-1368DR,4628,5093,11720,01.148,551
2022-08-05T13:20:08,42.805,6.029,CST-1368DR,4628,5121,11784,01.126,551
2022-08-05T13:23:10,42.805,6.029,CST-1368DR,4628,5118,11777,01.129,550
2022-08-05T13:26:11,42.805,6.029,CST-1368DR,4628,5096,11728,01.145,551
2022-08-05T13:29:13,42.805,6.029,CST-1368DR,4628,5079,11688,01.159,551
2022-08-05T13:32:15,42.805,6.029,CST-1368DR,4628,5084,11699,01.155,551
2022-08-05T13:35:16,42.805,6.029,CST-1368DR,4628,5106,11750,01.138,551
2022-08-05T13:38:18,42.805,6.029,CST-1368DR,4628,5118,11777,01.129,551
2022-08-05T13:41:19,42.805,6.029,CST-1368DR,4628,5118,11776,01.129,551
2022-08-05T13:44:21,42.805,6.029,CST-1368DR,4628,5090,11713,01.150,551
2022-08-05T13:47:22,42.805,6.029,CST-1368DR,4628,5091,11716,01.149,551
2022-08-05T13:50:24,42.805,6.029,CST-1368DR,4628,5120,11783,01.127,551
2022-08-05T13:53:26,42.805,6.029,CST-1368DR,4628,5107,11752,01.137,551
2022-08-05T13:56:27,42.805,6.029,CST-1368DR,4628,5104,11745,01.139,551
2022-08-05T13:59:29,42.805,6.029,CST-1368DR,4628,5088,11708,01.152,551
2022-08-05T14:02:30,42.805,6.029,CST-1368DR,4628,5086,11705,01.153,551
2022-08-05T14:05:32,42.805,6.029,CST-1368DR,4628,5086,11705,01.153,551
2022-08-05T14:08:33,42.805,6.029,CST-1368DR,4628,5118,11777,01.129,551
2022-08-05T14:11:35,42.805,6.029,CST-1368DR,4628,5107,11751,01.137,551
2022-08-05T14:14:37,42.805,6.029,CST-1368DR,4628,5115,11771,01.131,551
2022-08-05T14:17:38,42.805,6.029,CST-1368DR,4628,5089,11711,01.151,551
2022-08-05T14:20:40,42.805,6.029,CST-1368DR,4628,5105,11747,01.139,551
2022-08-05T14:23:41,42.805,6.029,CST-1368DR,4628,5112,11763,01.133,551
2022-08-05T14:26:43,42.805,6.029,CST-1368DR,4628,5100,11737,01.142,551
2022-08-05T14:29:45,42.805,6.029,CST-1368DR,4628,5100,11737,01.142,551
2022-08-05T14:32:46,42.805,6.029,CST-1368DR,4628,5094,11722,01.147,551
2022-08-05T14:35:48,42.805,6.029,CST-1368DR,4628,5099,11733,01.144,551
2022-08-05T14:38:49,42.805,6.029,CST-1368DR,4628,5084,11699,01.155,551
2022-08-05T14:41:51,42.805,6.029,CST-1368DR,4628,5091,11715,01.150,551
2022-08-05T14:44:52,42.805,6.029,CST-1368DR,4628,5097,11728,01.145,551
2022-08-05T14:47:54,42.805,6.029,CST-1368DR,4628,5114,11767,01.132,551
2022-08-05T14:50:56,42.805,6.029,CST-1368DR,4628,5088,11707,01.152,551
2022-08-05T14:53:57,42.805,6.029,CST-1368DR,4628,5122,11786,01.126,551
2022-08-05T14:56:59,42.805,6.029,CST-1368DR,4628,5098,11731,01.144,551
2022-08-05T15:00:00,42.805,6.029,CST-1368DR,4628,5093,11720,01.148,551
2022-08-05T15:03:02,42.805,6.029,CST-1368DR,4628,5109,11758,01.135,551
2022-08-05T15:06:04,42.805,6.029,CST-1368DR,4628,5086,11704,01.153,551
2022-08-05T15:09:05,42.805,6.029,CST-1368DR,4628,5112,11763,01.133,551
2022-08-05T15:12:07,42.805,6.029,CST-1368DR,4628,5085,11701,01.154,551
2022-08-05T15:15:08,42.805,6.029,CST-1368DR,4628,5111,11760,01.134,551
2022-08-05T15:18:10,42.805,6.029,CST-1368DR,4628,5090,11713,01.150,551
2022-08-05T15:21:11,42.805,6.029,CST-1368DR,4628,5100,11736,01.143,551
2022-08-05T15:24:13,42.805,6.029,CST-1368DR,4628,5107,11752,01.137,551
2022-08-05T15:27:15,42.805,6.029,CST-1368DR,4628,5098,11732,01.144,551
2022-08-05T15:30:16,42.805,6.029,CST-1368DR,4628,5085,11702,01.154,551
2022-08-05T15:33:18,42.805,6.029,CST-1368DR,4628,5089,11711,01.151,551
2022-08-05T15:36:19,42.805,6.029,CST-1368DR,4628,5106,11750,01.138,551
2022-08-05T15:39:21,42.805,6.029,CST-1368DR,4628,5079,11688,01.159,551
2022-08-05T15:42:22,42.805,6.029,CST-1368DR,4628,5096,11728,01.145,551
2022-08-05T15:45:24,42.805,6.029,CST-1368DR,4628,5130,11805,01.119,551
2022-08-05T15:48:26,42.805,6.029,CST-1368DR,4628,5132,11810,01.117,551
2022-08-05T15:51:27,42.805,6.029,CST-1368DR,4628,5132,11810,01.117,551
2022-08-05T15:54:29,42.805,6.029,CST-1368DR,4628,5137,11821,01.114,551
2022-08-05T15:57:30,42.805,6.029,CST-1368DR,4628,5138,11824,01.113,551
2022-08-05T16:00:32,42.805,6.029,CST-1368DR,4628,5132,11809,01.118,551
2022-08-05T16:03:34,42.805,6.029,CST-1368DR,4628,5131,11808,01.118,551
2022-08-05T16:06:35,42.805,6.029,CST-1368DR,4628,5129,11802,01.120,551
2022-08-05T16:09:37,42.805,6.029,CST-1368DR,4628,5128,11799,01.121,551
2022-08-05T16:12:38,42.805,6.029,CST-1368DR,4628,5131,11808,01.118,551
2022-08-05T16:15:40,42.805,6.029,CST-1368DR,4628,5137,11822,01.113,551
2022-08-05T16:18:41,42.805,6.029,CST-1368DR,4628,5141,11829,01.111,551
2022-08-05T16:21:43,42.805,6.029,CST-1368DR,4628,5130,11805,01.119,551
2022-08-05T16:24:45,42.805,6.029,CST-1368DR,4628,5134,11813,01.116,551
2022-08-05T16:27:46,42.805,6.029,CST-1368DR,4628,5132,11809,01.118,551
2022-08-05T16:30:48,42.805,6.029,CST-1368DR,4628,5130,11806,01.119,551
2022-08-05T16:33:49,42.805,6.029,CST-1368DR,4628,5131,11808,01.118,551
2022-08-05T16:36:51,42.805,6.029,CST-1368DR,4628,5131,11808,01.118,551